Weather in Zarechnoye

Russia / Omsk Oblast     54°19′45″N   74°35′14″E
temp.,
°C
wind,
m/s
gust,
m/s
humid.,
%
clouds,
%
prec.,
mm/h
press.,
hPa
HPBL,
m
8 march, mon
mon800:00+1ssw91691100 0.5 1007858
03:00+1ssw91688100 0.0 1006867
06:000ssw91690100 0.1 1003773
09:00−2ssw91595100 0.5 1002590
12:00−6wnw81193100 2.1 1005613
15:00−8wnw7128775 0.0 1009623
18:00−10w6138638 0.1 1015440
21:00−13wsw6128855 0.0 1017317
9 march, tue
tue900:00−13sw5129175 0.0 1019285
03:00−15ssw6128921 0.0 1020265
06:00−15ssw6138820 0.0 1020272
09:00−14ssw6129081 0.0 1020329
12:00−11ssw7128981 0.0 1020439
15:00−8ssw8138899 0.0 1019543
18:00−8ssw7148668 0.0 1017481
21:00−10ssw7158651 0.0 1017363
10 march, wed
wed1000:00−11sw6128867 0.0 1017277
03:00−10sw499194 0.0 1016206
06:00−11ssw339297 0.0 101660
09:00−10sse3392100 0.0 101488
12:00−8ese4691100 0.0 1011284
15:00−7ese61093100 0.8 1006470
18:00−7ese61095100 4.8 1000462
21:00−5nw3397100 1.9 998109
11 march, thu
thu1100:00−9w8149198 2.1 1001529
03:00−11wsw6139286 0.0 1004285
06:00−9sw6149384 0.1 1006513
09:00−11wsw7158794 0.1 1009559
12:00−10sw8128583 0.1 1011618
15:00−9sw711830 0.0 1012647
18:00−9ssw6119234 0.3 1011670
21:00−9s2596100 0.6 1009163
12 march, fri
fri1200:00−11wsw71490100 0.7 1009467
03:00−16sw5129299 0.1 1011438
06:00−19sw6129291 0.1 1012409
09:00−18sw7149293 0.0 1013570
12:00−15wsw8118896 0.1 1016811
15:00−15wsw81186100 0.1 1017939
18:00−17wsw61188100 0.1 1019757
21:00−21w5129292 0.0 1022316